Location: San Vito
(41.8833°N, 12.9833°E)
Time: 23:29:42
(UTC+00:00)

Cosmos 2082 Rocket - Pass Details

Date: 17 November 2019
Orbit: 833 x 853 km, 71.0° (Epoch: 14 December)

Event Time Altitude Azimuth Distance (km) Brightness Sun altitude
Exits shadow 04:25:24 21° 317° (NW) 1,808 3.5 -17.5°
Drops below altitude 10° 04:29:13 10° 359° (N) 2,489 4.5 -16.8°
Sets 04:32:16 0° 14° (NNE) 3,426 5.4 -16.2°
